Regional Weather Roundup
Issued by NWS Kansas City/Pleasant Hill, MO

Home | Current Version | Previous Version | Text Only | Print | Product List | Glossary On
Versions: 1 2 3 4 5 6 7 8 9 10 11 12 13 14 15 16 17 18 19 20 21 22 23 24 25 26 27
000
ASUS43 KEAX 271610
RWREAX

WEATHER ROUNDUP FOR EASTERN KANSAS AND NORTHWEST MISSOURI
NATIONAL WEATHER SERVICE KANSAS CITY/PLEASANT HILL MO
1100 AM CDT MON MAR 27 2017

KSZ040-057-103>105-MOZ028-029-037-043-271700-
...KANSAS CITY METROPOLITAN AREA...

CITY           SKY/WX    TMP DP  RH WIND       PRES   REMARKS
K.C. INTL      CLOUDY    48  46  93 N12       29.93R
K.C. DOWNTOWN  CLOUDY    50  47  89 NE12      29.91R
LEES SUMMIT    CLOUDY    48  47  96 NE10G20   29.90R
OLATHE - IXD   CLOUDY    48  46  93 N10       29.91R
OLATHE - OJC   CLOUDY    48  47  96 N12       29.90R
LAWRENCE       CLOUDY    49  47  93 NW7       29.94R

$$

MOZ001>008-011>017-020>025-030>033-038>040-044>046-053-054-271700-
...NORTHERN AND CENTRAL MISSOURI...

CITY           SKY/WX    TMP DP  RH WIND       PRES   REMARKS
ST. JOSEPH     CLOUDY    48  47  96 N12       29.95R
MOSBY          CLOUDY    48  45  87 NE10      29.90S
WHITEMAN AFB   DRIZZLE   49  49 100 N12       29.86S FOG
CLINTON        CLOUDY    50  50 100 N9        29.87R FOG
SEDALIA        CLOUDY    50  49  96 N10       29.88R
WARSAW         NOT AVBL
CHILLICOTHE      N/A     48  47  96 NE6       29.93R
KIRKSVILLE     CLOUDY    47  32  56 NE13      29.92S

$$

MOZ041-047>049-056>058-063>065-088>090-097-271700-
...EASTERN AND SOUTHERN MISSOURI...

CITY           SKY/WX    TMP DP  RH WIND       PRES   REMARKS
ST. LOUIS INTL LGT RAIN  54  51  90 NE7       29.86F FOG
SPIRIT OF STL  LGT RAIN  53  53 100 NE7       29.85F FOG
COLUMBIA       CLOUDY    51  51 100 E12       29.85R FOG
JEFFERSON CITY LGT RAIN  56  52  86 E8        29.84S FOG
ROLLA          CLOUDY    55  54  96 E6        29.83S
OSAGE BEACH    CLOUDY   N/A N/A N/A E3        29.84R
SPRINGFIELD    LGT RAIN  55  53  93 W8        29.85R FOG
BRANSON        CLOUDY    55  55 100 SE8       29.84R
JOPLIN         CLOUDY    54  53  97 NW6       29.88R FOG
WEST PLAINS    RAIN      55  54  96 S10       29.84S FOG

$$

IAZ060-094-KSZ022-034>040-054-083-096-NEZ052-066-093-271700-
...KANSAS...SOUTHEAST NEBRASKA AND IOWA...

CITY           SKY/WX    TMP DP  RH WIND       PRES   REMARKS
TOPEKA         CLOUDY    48  47  96 NW10      29.96R
MANHATTAN      CLOUDY    48  45  89 N7        29.97R
EMPORIA        CLOUDY    48  46  93 N14       29.94R
CHANUTE        CLOUDY    49  46  90 NW10      29.91R
WICHITA        CLOUDY    49  45  86 N14       29.95R
OMAHA          CLOUDY    47  40  76 N8        29.98S
LINCOLN        CLOUDY    49  41  74 N8        30.00S
FALLS CITY     CLOUDY    48  43  82 N10       29.96R
LAMONI         CLOUDY    46  44  93 NE6       29.93R
DES MOINES     CLOUDY    47  41  80 N7        29.95R

$$





USA.gov is the U.S. government's official web portal to all federal, state and local government web resources and services.